User: anonymous   Login
Location: Langangen
(59.1000°N, 9.8000°E)
Time: 13:09:05
(UTC+02:00)
Language:

Iridium 60 - Orbit

View from above orbital plane
View from above orbital plane
View from above satellite
View from above satellite

Ground track
Ground track

The orbit data is extracted from the following two-line orbital elements,

1 25276U 98019E   16126.45525516  .00000056  00000-0  12980-4 0  9993
2 25276  86.3940  97.4719 0002227  86.0837 274.0613 14.34214716947620
Epoch (UTC): 05 May 2016 10:55:34
Eccentricity: 0.0002227
inclination: 86.3940°
perigee height: 776 km
apogee height: 779 km
right ascension of ascending node: 97.4719°
argument of perigee: 86.0837°
revolutions per day: 14.34214716
mean anomaly at epoch: 274.0613°
orbit number at epoch: 94762

The dashed part of the orbit path shows where the satellite is in the earth's shadow,  

DLR